Hourly Data Report for October 14, 2015

All times are specified in Local Standard Time (LST). Add 1 hour to adjust for Daylight Saving Time where and when it is observed.

BATHURST A
NEW BRUNSWICK

47°37'47.000" N
65°44'20.000" W
58.80 m
8100505
71574
ZBF

Download Data

Hourly Data (October 2015)
Hourly Data Report for October 14, 2015
Temp Definition
°C
Dew Point Temp Definition
°C
Rel Hum Definition
%
Wind Dir Definition
10's deg

Wind Spd Definition
km/h
Visibility Definition
km
Stn Press Definition
kPa
Hmdx Definition


Wind Chill Definition


Weather Definition


TIME
00:00 Legend Double Dagger 12.5 12.4 99 17 6 0.4 98.82     Rain Showers,Fog
01:00 Legend Double Dagger 13.0 12.9 99 19 4 8.1 98.76     Rain Showers,Fog
02:00 Legend Double Dagger 13.4 13.3 99 18 5 9.7 98.70     Rain Showers
03:00 Legend Double Dagger 13.7 13.4 98 18 9 19.3 98.61     LegendNANA
04:00 Legend Double Dagger 13.9 13.6 98 20 6 19.3 98.54     LegendNANA
05:00 Legend Double Dagger 14.3 13.8 97 19 7 19.3 98.52     Rain Showers
06:00 Legend Double Dagger 14.7 14.2 97 16 4 2.4 98.45     Moderate Rain Showers,Fog
07:00 Legend Double Dagger 14.6 14.1 97 24 10 24.1 98.53     Rain Showers
08:00 Legend Double Dagger 14.6 12.8 89 24 8 24.1 98.59     Mainly Clear
09:00 Legend Double Dagger 14.6 10.3 75 24 22 24.1 98.65     LegendNANA
10:00 Legend Double Dagger 15.6 9.8 68 23 26 24.1 98.67     LegendNANA
11:00 Legend Double Dagger 16.1 10.3 68 23 29 24.1 98.69     Mostly Cloudy
12:00 Legend Double Dagger 16.5 9.7 64 23 28 24.1 98.69     LegendNANA
13:00 Legend Double Dagger 16.9 9.9 63 23 35 24.1 98.69     LegendNANA
14:00 Legend Double Dagger 18.0 9.5 57 24 30 24.1 98.72     Mainly Clear
15:00 Legend Double Dagger 17.5 9.2 58 24 26 24.1 98.73     LegendNANA
16:00 Legend Double Dagger 16.9 8.7 58 25 28 24.1 98.81     LegendNANA
17:00 Legend Double Dagger 15.5 8.3 62 24 21 24.1 98.88     Mostly Cloudy
18:00 Legend Double Dagger 14.8 6.4 57 27 30 24.1 98.99     LegendNANA
19:00 Legend Double Dagger 13.5 6.0 60 27 15 24.1 99.09     LegendNANA
20:00 Legend Double Dagger 11.9 6.4 69 30 21 24.1 99.22     Cloudy
21:00 Legend Double Dagger 10.4 4.1 65 28 13 24.1 99.35     LegendNANA
22:00 Legend Double Dagger 8.8 0.5 56 28 16 24.1 99.49     LegendNANA
23:00 Legend Double Dagger 6.1 1.1 70 25 8 24.1 99.54     Clear

Notes on Data Quality.

Legend

  • E = Estimated
  • M = Missing
  • NA = Not Available
  • ‡ = Partner data that is not subject to review by the National Climate Archives
Date modified: